Regional Weather Roundup
Issued by NWS

Home | Current Version | Previous Version | Graphics & Text | Print | Product List | Glossary On
Versions: 1 2 3 4 5 6 7 8 9 10 11 12 13 14 15 16 17 18 19 20 21 22 23 24 25 26 27 28 29 30 31 32 33 34 35 36 37 38 39 40 41 42 43 44 45 46 47 48 49 50
873
ASUS45 KSLC 300810
RWRUT

UTAH REGIONAL WEATHER ROUNDUP
NATIONAL WEATHER SERVICE SALT LAKE CITY UT
200 AM MDT SAT APR 30 2016

UTZ001>011-023>025-300900-

NORTHERN UTAH

CITY           SKY/WX    TMP DP  RH WIND       PRES   REMARKS
BRIGHAM CITY   PTCLDY    44  37  78 CALM      29.88S
HILL AFB       PTCLDY    43  37  78 E9        29.87R
LOGAN          CLOUDY    42  39  89 CALM      29.88S
OGDEN          PTCLDY    42  36  79 W5        29.86S
PROVO AIRPORT  PTCLDY    41  34  75 S7        29.87S
SALT LAKE CITY MOCLDY    48  40  73 SW7       29.86S
VERNAL         CLOUDY    35  29  78 CALM      29.87R
WENDOVER       CLOUDY    45  39  81 W12       29.90F
HEBER CITY     MOCLDY    36  32  87 CALM      29.88R

$$

UTZ012>022-026-027-300900-

SOUTHERN/CENTRAL UTAH

CITY           SKY/WX    TMP DP  RH WIND       PRES   REMARKS
BLANDING       MOCLDY    38  35  89 CALM      29.93S
BRYCE CANYON   MOCLDY    32  29  88 N5        29.88F WCI  27
CEDAR CITY     CLOUDY    40  37  89 NE3       29.85R
DELTA          CLOUDY    43  41  93 CALM      29.86F
HANKSVILLE     PTCLDY    45  41  87 CALM      29.84F
MILFORD        CLOUDY    44  41  89 NE6       29.84F
MOAB/CYNLANDS  CLOUDY    46  41  82 N3        29.81F
PRICE          MOCLDY    41  31  67 NE8       29.85S
ST GEORGE      CLOUDY    50  45  81 W9        29.89R
KANAB          CLOUDY    45  43  93 CALM      29.90F

$$

REGIONAL REPORTS     COLORADO/ARIZONA

CITY           SKY/WX    TMP DP  RH WIND       PRES   REMARKS
CRAIG, CO      CLOUDY    35  30  82 W10       29.87S WCI  27
GRAND JUNCTION CLOUDY    42  41  96 NE6       29.83S
RIFLE          CLOUDY    43  37  79 CALM      29.84R
MONTROSE       CLOUDY    42  35  76 SE3       29.86F
CORTEZ         CLOUDY    32  30  92 NE6       29.87F WCI  26
PAGE, AZ       MOCLDY    53  40  61 NE6       29.82F
GRAND CANYON   CLOUDY    40  36  86 CALM      29.89F
KINGMAN        PTCLDY    59  36  42 S12       29.75F
FLAGSTAFF      CLOUDY    35  35 100 CALM      29.92F

$$

REGIONAL REPORTS    NEVADA/IDAHO/WYOMING

CITY           SKY/WX    TMP DP  RH WIND       PRES   REMARKS
LAS VEGAS, NV  CLOUDY    65  41  41 NE20      29.66F
ELY            MOCLDY    34  32  92 S7        29.88F WCI  28
ELKO           LGT RAIN  41  37  86 CALM      29.93R
POCATELLO, ID  PTCLDY    38  36  92 E5        29.91S WCI  34
BURLEY         LGT RAIN  44  38  79 W15G22    29.90S
EVANSTON, WY   PTCLDY    33  26  75 E8        29.91R WCI  26
ROCK SPRINGS   LGT SNOW  33  29  85 NE14      29.93S FOG     WCI  23
KEMMERER         N/A     32  28  86 NE3       29.94S

$$




USA.gov is the U.S. government's official web portal to all federal, state and local government web resources and services.